GW5681 Weather Reports


Display with metric or nautical units.
time (UTC)temp
F
wind
direction
speed
MPH
gust
MPH
rain 1hr
in
rain 24hr
in
rain mn
in
humidity
%
barometer
mb
20260505212518 49 291 1.0 5.0 0.00 0.12 0.12 81 1007.5
20260505211538 49 289 1.0 5.0 0.00 0.12 0.12 80 1007.4
20260505210518 49 286 1.0 4.0 0.00 0.12 0.12 83 1007.4
20260505205518 49 281 1.0 4.0 0.00 0.12 0.12 85 1007.6
20260505204516 49 264 1.0 4.0 0.00 0.12 0.12 85 1007.3
20260505203516 49 285 2.0 6.0 0.01 0.12 0.12 85 1007.4
20260505202519 48 280 1.0 5.0 0.01 0.12 0.12 86 1007.3
20260505201536 48 283 2.0 4.0 0.01 0.12 0.12 86 1007.3
20260505200516 49 296 2.0 6.0 0.04 0.12 0.12 86 1007.4
20260505195516 49 302 1.0 4.0 0.08 0.12 0.12 87 1007.3
20260505194516 49 286 1.0 5.0 0.09 0.11 0.11 85 1007.2
20260505193517 49 272 1.0 5.0 0.08 0.11 0.11 84 1007.3
20260505192517 50 284 3.0 8.0 0.09 0.10 0.10 82 1007.0
20260505191516 51 289 1.0 3.0 0.10 0.10 0.10 82 1007.0
20260505190517 52 286 2.0 5.0 0.07 0.08 0.08 76 1006.9
20260505185517 53 265 1.0 5.0 0.03 0.04 0.04 71 1006.6
20260505184518 54 274 2.0 4.0 0.02 0.03 0.03 68 1006.6
20260505183518 55 312 2.0 6.0 0.02 0.02 0.02 67 1006.4
20260505182518 56 307 3.0 11.0 0.01 0.01 0.01 59 1006.1
20260505181518 57 309 3.0 8.0 0.00 0.01 0.01 56 1005.8
20260505180538 57 298 3.0 7.0 0.00 0.01 0.01 56 1005.6
20260505175518 57 281 3.0 9.0 0.00 0.01 0.01 56 1005.5
20260505174518 57 315 2.0 6.0 0.00 0.01 0.01 56 1005.2
20260505173518 57 330 2.0 7.0 0.00 0.01 0.01 56 1005.1
20260505172516 57 319 3.0 8.0 0.00 0.01 0.01 57 1005.2
20260505171519 58 298 2.0 6.0 0.00 0.01 0.01 57 1005.0
20260505170515 58 261 2.0 7.0 0.00 0.01 0.01 57 1004.9
20260505165516 58 297 3.0 7.0 0.00 0.01 0.01 58 1004.8
20260505164536 58 309 2.0 6.0 0.00 0.01 0.01 59 1004.8
20260505163517 58 324 2.0 5.0 0.00 0.01 0.01 60 1004.6
20260505162517 58 331 2.0 5.0 0.00 0.01 0.01 60 1004.6
20260505161517 59 300 2.0 10.0 0.00 0.01 0.01 61 1004.6
20260505160517 59 305 2.0 7.0 0.00 0.01 0.01 60 1004.6
20260505152518 58 276 2.0 7.0 0.00 0.01 0.01 64 1004.3
20260505151538 58 274 2.0 7.0 0.00 0.01 0.01 65 1003.4
20260505150518 58 359 2.0 6.0 0.00 0.01 0.01 67 1003.5
20260505140516 57 283 2.0 6.0 0.00 0.01 0.01 76 1002.3
20260505124537 58 283 2.0 5.0 0.00 0.01 0.01 84 1001.8
20260505123517 58 278 2.0 6.0 0.00 0.01 0.01 83 1001.3
20260505122537 58 287 2.0 9.0 0.00 0.01 0.01 83 1001.1
20260505121517 58 303 2.0 6.0 0.00 0.01 0.01 83 1001.0
20260505120518 57 280 3.0 8.0 0.00 0.01 0.01 83 1000.8
20260505115517 57 291 2.0 4.0 0.00 0.01 0.01 83 1000.4
20260505114518 57 303 2.0 5.0 0.00 0.01 0.01 83 1000.3
20260505113518 57 285 2.0 4.0 0.00 0.01 0.01 83 1000.3
20260505112518 57 302 2.0 4.0 0.00 0.01 0.01 84 1000.5
20260505111515 57 284 2.0 5.0 0.00 0.01 0.01 84 1000.4
20260505110516 57 295 2.0 5.0 0.00 0.01 0.01 84 1000.3
20260505101516 57 309 2.0 4.0 0.00 0.01 0.01 83 999.6
20260505100516 57 310 2.0 7.0 0.00 0.01 0.01 83 999.4
20260505095517 56 337 2.0 3.0 0.00 0.01 0.01 83 999.4
20260505094517 56 313 2.0 4.0 0.00 0.01 0.01 83 999.2
20260505093517 56 294 2.0 5.0 0.00 0.01 0.01 83 999.2
20260505092517 56 322 2.0 6.0 0.00 0.01 0.01 83 998.9
20260505091517 56 292 1.0 5.0 0.00 0.01 0.01 84 999.1
20260505090517 56 316 1.0 3.0 0.00 0.01 0.01 83 999.1
20260505085518 56 309 1.0 6.0 0.00 0.01 0.01 83 999.3
20260505084516 57 326 1.0 3.0 0.00 0.01 0.01 82 999.2
20260505083516 57 302 1.0 5.0 0.00 0.01 0.01 81 999.1
20260505082516 58 328 1.0 2.0 0.00 0.01 0.01 80 998.9
20260505081516 58 317 2.0 7.0 0.00 0.01 0.01 79 998.9
20260505080516 58 314 2.0 6.0 0.00 0.01 0.01 78 998.9
20260505075516 58 316 3.0 8.0 0.00 0.01 0.01 79 999.0
20260505074517 58 330 2.0 5.0 0.00 0.01 0.01 79 999.0
20260505073516 58 326 1.0 5.0 0.00 0.01 0.01 79 999.3
20260505072516 58 331 2.0 5.0 0.00 0.01 0.01 79 999.3
20260505071536 59 335 2.0 5.0 0.00 0.01 0.01 78 999.2
20260505070516 59 339 2.0 7.0 0.00 0.01 0.01 77 999.4
20260505065517 59 331 3.0 9.0 0.00 0.01 0.01 77 999.4
20260505064517 59 314 2.0 6.0 0.00 0.01 0.01 77 999.7
20260505063537 59 324 2.0 6.0 0.00 0.01 0.01 77 999.7
20260505062517 59 331 2.0 4.0 0.00 0.01 0.01 77 999.7
20260505061517 59 326 2.0 5.0 0.00 0.01 0.01 77 999.8
20260505060537 59 321 2.0 5.0 0.00 0.01 0.01 77 999.9
20260505055518 58 322 2.0 5.0 0.00 0.01 0.01 78 1000.1
20260505054518 58 339 2.0 6.0 0.00 0.01 0.01 78 1000.2
20260505053518 58 332 2.0 6.0 0.00 0.02 0.01 78 1000.3
20260505052517 58 320 2.0 6.0 0.00 0.03 0.01 77 1000.3
20260505051518 58 323 2.0 6.0 0.00 0.03 0.01 77 1000.4
20260505050518 58 305 2.0 5.0 0.00 0.03 0.01 77 1000.3
20260505041516 59 313 3.0 6.0 0.00 0.03 0.01 76 1000.3
20260505040519 60 339 3.0 7.0 0.01 0.03 0.01 75 1000.3
20260505035538 60 320 3.0 7.0 0.01 0.03 0.01 73 1000.3
20260505034516 60 309 2.0 8.0 0.01 0.03 0.01 73 1000.4
20260505033517 60 297 2.0 6.0 0.01 0.03 0.01 75 1000.5
20260505032537 60 336 2.0 6.0 0.01 0.03 0.01 75 1000.4
20260505031517 61 292 4.0 13.0 0.00 0.03 0.00 73 1000.4
20260505030517 62 307 3.0 7.0 0.00 0.02 0.00 71 1000.6
20260505025518 62 321 3.0 7.0 0.00 0.02 0.00 71 1000.7
20260505024537 62 329 2.0 6.0 0.00 0.02 0.00 71 1000.9
20260505023538 61 329 3.0 5.0 0.00 0.02 0.00 71 1000.8
20260505022518 61 351 2.0 6.0 0.00 0.02 0.00 71 1000.7
20260505021538 61 352 2.0 5.0 0.00 0.02 0.00 69 1000.8
20260505020518 62 2 2.0 4.0 0.00 0.02 0.00 68 1000.7
20260505015519 62 352 2.0 6.0 0.00 0.02 0.00 67 1000.7
20260505014516 62 342 2.0 7.0 0.00 0.02 0.00 65 1000.6
20260505013516 62 346 2.0 6.0 0.00 0.02 0.00 63 1000.5
20260505012536 62 9 2.0 7.0 0.00 0.02 0.00 61 1000.5
20260505011516 62 345 2.0 5.0 0.00 0.02 0.00 60 1000.4
20260505010516 62 358 2.0 5.0 0.00 0.02 0.00 60 1000.4
20260505005516 63 343 2.0 5.0 0.00 0.02 0.00 59 1000.4
20260505004517 63 354 2.0 5.0 0.00 0.02 0.00 58 1000.4
20260505003516 63 351 1.0 3.0 0.00 0.02 0.00 57 1000.3
20260505002517 64 349 2.0 4.0 0.00 0.02 0.00 57 1000.2
20260505001517 64 348 2.0 5.0 0.00 0.02 0.00 56 1000.2
20260505000518 65 340 3.0 8.0 0.00 0.02 0.00 54 1000.2
20260504235517 65 340 2.0 5.0 0.00 0.02 0.00 53 1000.3
20260504234517 66 333 3.0 7.0 0.00 0.02 0.00 52 1000.5
20260504233518 66 320 3.0 10.0 0.00 0.02 0.00 50 1000.6
20260504231518 67 337 3.0 9.0 0.00 0.02 0.00 47 1000.9
20260504230518 67 343 2.0 5.0 0.00 0.02 0.00 46 1001.0
20260504225518 67 336 3.0 8.0 0.00 0.02 0.02 45 1001.2
20260504224519 68 326 4.0 9.0 0.00 0.02 0.02 43 1001.2
20260504223518 69 325 3.0 8.0 0.00 0.02 0.02 44 1001.3
20260504222518 70 334 4.0 12.0 0.00 0.02 0.02 43 1001.2
20260504221516 70 351 4.0 12.0 0.00 0.02 0.02 42 1001.2
20260504220516 71 345 4.0 10.0 0.00 0.02 0.02 43 1001.1
20260504215516 70 337 3.0 10.0 0.00 0.02 0.02 44 1001.0
20260504214516 70 336 3.0 9.0 0.00 0.02 0.02 45 1001.1
20260504213516 70 337 3.0 8.0 0.00 0.02 0.02 46 1001.2